Location: Batang Balui
(2.7000°N, 113.7833°E)
Time: 00:31:15
(UTC+00:00)

FO-29 - Pass Details

Date: 03 April 2023
Orbit: 799 x 1322 km, 98.5° (Epoch: 29 May)

Event Time Altitude Azimuth Distance (km) Brightness Sun altitude
Rises 20:05:22 0° 36° (NE) 3,876 13.2 -35.1°
Reaches altitude 10° 20:08:35 10° 49° (NE) 2,830 12.5 -34.4°
Maximum altitude 20:13:26 23° 100° (E) 1,903 11.6 -33.2°
Drops below altitude 10° 20:17:52 10° 151° (SSE) 2,579 11.9 -32.1°
Sets 20:20:38 0° 165° (SSE) 3,454 12.5 -31.4°
